[[{"header":{"parameterUnit":"m.s-1","parameterCategory":1,"la1":30.2991,"la2":30.254,"lo1":-89.0895,"lo2":-89.0444,"dy":0.0017,"dx":0.0017,"nx":28,"ny":28,"refTime":"2023-10-27T03:00:00:Z","depth":0,"parameterNumber":2,"parameterNumberName":"U-component_of_WINDS"},"data":[0,0,0,0,0,0,0,0,0,0,0,0,0,0,0,0,0,0,0,0,0,0,0,0,0,0,0,0,0,0,0,0,0,0,0,0,0,0,0,0,0,0,0,0,0,0,0,0,0,0,0,0,0,0,0,0,0,0,-2.7564,-2.7564,0,-2.7544,-2.7544,-2.7544,-2.7443,-2.7441,-2.7438,-2.7436,-2.7417,-2.7418,-2.742,0,0,0,0,0,0,0,0,0,0,0,0,0,-2.7517,-2.7518,-2.7564,-2.7564,-2.7564,-2.7544,-2.7544,-2.7544,-2.7444,-2.7441,-2.7438,-2.7435,-2.7416,-2.7418,-2.742,0,0,0,0,0,0,0,0,0,0,0,0,0,-2.7521,-2.7519,-2.7564,-2.7511,-2.7507,-2.7544,-2.7544,-2.7544,-2.7444,-2.7441,-2.7437,-2.7434,-2.7416,-2.7418,-2.7421,-2.7508,0,0,-2.7428,-2.7429,0,0,0,0,0,0,0,0,-2.7521,-2.7523,-2.7519,-2.7515,-2.751,-2.7492,-2.752,-2.7532,-2.7445,-2.7468,-2.7436,-2.7432,-2.7445,-2.7445,-2.7449,-2.7507,-2.7506,-2.7429,-2.743,-2.7431,-2.7432,0,0,0,0,0,0,0,-2.7521,-2.7524,-2.7556,-2.752,-2.7514,-2.7489,-2.7486,-2.7522,-2.7477,-2.7466,-2.7458,-2.7457,-2.7442,-2.7447,-2.7448,-2.7506,-2.7428,-2.7431,-2.7432,-2.7433,-2.7634,-2.7638,0,0,0,0,0,0,-2.7528,-2.7524,-2.7557,-2.7556,-2.7507,-2.7493,-2.7489,-2.7502,-2.7476,-2.7469,-2.746,-2.7453,-2.7444,-2.7445,-2.7447,-2.7547,-2.7431,-2.7434,-2.7435,-2.7631,-2.7635,-2.7639,0,0,0,0,0,0,-2.7527,-2.7532,-2.7558,-2.7538,-2.7539,-2.7497,-2.7512,-2.7503,-2.7508,-2.7472,-2.7464,-2.7474,-2.7441,-2.7443,-2.7493,-2.7545,-2.7435,-2.7437,-2.7626,-2.7632,-2.7637,-2.7749,0,0,0,0,0,0,-2.7527,-2.7532,-2.7565,-2.7539,-2.7541,-2.7605,-2.7516,-2.7505,-2.7513,-2.7502,-2.7482,-2.7476,-2.7439,-2.749,-2.7496,-2.7546,-2.7439,-2.7621,-2.7629,-2.7636,-2.774,-2.7758,-2.7773,0,0,0,0,0,-2.7525,-2.7597,-2.7567,-2.7571,-2.758,-2.7608,-2.7609,-2.7564,-2.7517,-2.755,-2.7527,-2.7476,-2.7539,-2.7496,-2.7502,-2.7554,-2.7618,-2.7627,-2.7635,-2.7733,-2.7754,-2.7772,0,0,0,0,0,0,-2.763,-2.7593,-2.7559,-2.7625,-2.762,-2.7591,-2.763,-2.7588,-2.7597,-2.7587,-2.7532,-2.7528,-2.7587,-2.7575,-2.7529,-2.7637,-2.757,-2.758,-2.7642,-2.7662,-2.7678,-2.7679,-2.7441,0,0,0,0,0,-2.7661,-2.7686,-2.7652,-2.7713,-2.7713,-2.7673,-2.7683,-2.7649,-2.7642,-2.764,-2.762,-2.7616,-2.7634,-2.7648,-2.7663,-2.7738,-2.7733,-2.7777,-2.7793,-2.7807,-2.7816,-2.7856,-2.7875,-2.7668,-2.7668,-2.7667,0,0,-2.7724,-2.7707,-2.7726,-2.7734,-2.7726,-2.7754,-2.7671,-2.7704,-2.7724,-2.7645,-2.7691,-2.7677,-2.7668,-2.7732,-2.7759,-2.7724,-2.7872,-2.7818,-2.7829,-2.7831,-2.7866,-2.7886,-2.7904,-2.7673,-2.7672,-2.7671,0,0,-2.7854,-2.7844,-2.7894,-2.7888,-2.7878,-2.7851,-2.7863,-2.784,-2.7828,-2.7873,-2.7814,-2.7838,-2.7871,-2.7867,-2.7869,-2.7999,-2.7954,-2.8006,-2.809,-2.8129,-2.8145,-2.8159,-2.8206,-2.8223,-2.8015,-2.8016,-2.8016,0,-2.7935,-2.7974,-2.7925,-2.7962,-2.7967,-2.7896,-2.7947,-2.7944,-2.7939,-2.7945,-2.7906,-2.7946,-2.7935,-2.7997,-2.8029,-2.8033,-2.8046,-2.8008,-2.8147,-2.816,-2.8173,-2.8217,-2.8234,-2.8022,-2.8021,-2.8021,-2.802,0,-2.8073,-2.8102,-2.8143,-2.814,-2.815,-2.8194,-2.8152,-2.8168,-2.8134,-2.8111,-2.8158,-2.8143,-2.8154,-2.8166,-2.8133,-2.8224,-2.8203,-2.8156,-2.8087,-2.82,-2.824,-2.8256,-2.8031,-2.8029,-2.8027,-2.8025,0,0,-2.8268,-2.8238,-2.8254,-2.8252,-2.8236,-2.8257,-2.8298,-2.8308,-2.8323,-2.8323,-2.8355,-2.8385,-2.8342,-2.8345,-2.8312,-2.8346,-2.845,-2.8295,-2.8294,-2.8324,-2.8549,-2.8584,-2.8604,-2.842,-2.8423,-2.8425,-2.855,0,-2.8392,-2.8459,-2.8417,-2.8491,-2.8516,-2.845,-2.8485,-2.848,-2.846,-2.8479,-2.8456,-2.8479,-2.842,-2.8422,-2.8453,-2.8431,-2.8494,-2.8421,-2.845,-2.8452,-2.8454,-2.8625,-2.8661,-2.8779,-2.8565,-2.8568,-2.857,0,-2.8546,-2.8552,-2.8629,-2.8608,-2.8617,-2.8649,-2.8656,-2.8674,-2.8667,-2.865,-2.8654,-2.8612,-2.865,-2.8583,-2.8636,-2.8587,-2.8597,-2.8588,-2.8591,-2.8592,-2.8517,-2.863,-2.8816,-2.8834,-2.8594,-2.8592,-2.859,0,-2.868,-2.8708,-2.8757,-2.8757,-2.8734,-2.8759,-2.875,-2.8739,-2.8748,-2.8754,-2.876,-2.877,-2.8776,-2.8786,-2.8747,-2.8702,-2.8806,-2.8735,-2.8793,-2.8794,-2.8817,-2.8816,-2.9007,-2.8824,-2.8824,-2.8824,-2.8823,0,-2.8823,-2.8872,-2.8817,-2.8847,-2.8901,-2.8852,-2.8906,-2.8891,-2.8882,-2.8908,-2.8852,-2.8878,-2.8827,-2.8848,-2.8818,-2.8867,-2.887,-2.8857,-2.8849,-2.8862,-2.8864,-2.8867,-2.8858,-2.8828,-2.8827,-2.8826,-2.8825,0,-2.8982,-2.8946,-2.8996,-2.897,-2.8965,-2.9005,-2.8983,-2.9011,-2.8987,-2.9021,-2.9027,-2.899,-2.9012,-2.8975,-2.8993,-2.8973,-2.904,-2.9019,-2.9043,-2.9036,-2.9096,-2.9091,-2.9296,-2.932,-2.9122,-2.9124,-2.9126,0,-2.9075,-2.9111,-2.909,-2.9103,-2.9098,-2.9121,-2.9129,-2.9084,-2.9095,-2.909,-2.9118,-2.9135,-2.9146,-2.9185,-2.916,-2.9173,-2.9152,-2.9223,-2.9154,-2.9166,-2.9153,-2.9151,-2.9154,-2.9237,-2.9239,-2.9241,-2.9243,0,-2.9244,-2.9225,-2.924,-2.9249,-2.9262,-2.9267,-2.9268,-2.9282,-2.9234,-2.925,-2.9272,-2.9281,-2.9298,-2.9316,-2.9324,-2.9315,-2.9272,-2.9265,-2.9279,-2.9293,-2.9305,-2.9299,-2.9081,-2.926,-2.9259,-2.9257,-2.9256,-2.9256,-2.9372,-2.9401,-2.9391,-2.941,-2.9406,-2.9408,-2.9433,-2.9412,-2.9429,-2.944,-2.9412,-2.9441,-2.9433,-2.9438,-2.9435,-2.9457,-2.9425,-2.9446,-2.9451,-2.9456,-2.9466,-2.9302,-2.9458,-2.9457,-2.9457,-2.9456,-2.9456,0,-2.9538,-2.9528,-2.9546,-2.9549,-2.9564,-2.9522,-2.9521,-2.9536,-2.9562,-2.9558,-2.9571,-2.9596,-2.9613,-2.959,-2.9604,-2.9626,-2.9606,-2.9631,-2.9628,-2.9627,-2.9493,-2.9479,-2.9646,-2.9646,-2.9646,-2.9646,-2.9646,-2.9646,-2.9626,-2.9673,-2.9653,-2.9698,-2.9688,-2.9715,-2.9718,-2.9721,-2.9717,-2.9748,-2.9762,-2.9747,-2.9736,-2.9748,-2.9762,-2.9755,-2.9762,-2.9794,-2.978,-2.9655,-2.9637,-2.9619,-2.9606,-2.9796,-2.9797,-2.9912,-2.9913,-2.9914]},{"header":{"parameterUnit":"m.s-1","parameterCategory":1,"la1":30.2991,"la2":30.254,"lo1":-89.0895,"lo2":-89.0444,"dy":0.0017,"dx":0.0017,"nx":28,"ny":28,"refTime":"2023-10-27T03:00:00:Z","depth":0,"parameterNumber":3,"parameterNumberName":"V-component_of_WINDS"},"data":[0,0,0,0,0,0,0,0,0,0,0,0,0,0,0,0,0,0,0,0,0,0,0,0,0,0,0,0,0,0,0,0,0,0,0,0,0,0,0,0,0,0,0,0,0,0,0,0,0,0,0,0,0,0,0,0,0,0,-0.6092,-0.6091,0,-0.602,-0.6019,-0.6018,-0.5999,-0.6,-0.6,-0.6,-0.5925,-0.5923,-0.5921,0,0,0,0,0,0,0,0,0,0,0,0,0,-0.621,-0.6208,-0.6092,-0.6091,-0.609,-0.602,-0.6019,-0.6018,-0.5999,-0.6,-0.6,-0.6001,-0.5926,-0.5923,-0.592,0,0,0,0,0,0,0,0,0,0,0,0,0,-0.615,-0.6207,-0.6092,-0.6072,-0.607,-0.602,-0.6019,-0.6017,-0.5999,-0.6,-0.6,-0.6001,-0.5927,-0.5924,-0.592,-0.5884,0,0,-0.5909,-0.5907,0,0,0,0,0,0,0,0,-0.6154,-0.6146,-0.6076,-0.6073,-0.6071,-0.6019,-0.6033,-0.5973,-0.5999,-0.6026,-0.6,-0.6001,-0.5956,-0.595,-0.5935,-0.5881,-0.5878,-0.5909,-0.5906,-0.5905,-0.5904,0,0,0,0,0,0,0,-0.6158,-0.6149,-0.6063,-0.6075,-0.6072,-0.6066,-0.6058,-0.6021,-0.5988,-0.6023,-0.6022,-0.6014,-0.5955,-0.5938,-0.5933,-0.5876,-0.5909,-0.5905,-0.5903,-0.5902,-0.5786,-0.5785,0,0,0,0,0,0,-0.6166,-0.6153,-0.6065,-0.6061,-0.6115,-0.6063,-0.6055,-0.6035,-0.5988,-0.5982,-0.6013,-0.6013,-0.5944,-0.5937,-0.593,-0.5883,-0.5905,-0.5901,-0.5899,-0.5787,-0.5786,-0.5785,0,0,0,0,0,0,-0.6169,-0.6158,-0.6068,-0.6106,-0.6094,-0.606,-0.6039,-0.6033,-0.6017,-0.5981,-0.5974,-0.6003,-0.5945,-0.5935,-0.5895,-0.588,-0.59,-0.5897,-0.5788,-0.5787,-0.5786,-0.579,0,0,0,0,0,0,-0.6172,-0.6159,-0.6146,-0.6106,-0.6093,-0.6035,-0.6038,-0.6031,-0.6011,-0.601,-0.5969,-0.5963,-0.5944,-0.5901,-0.5892,-0.5876,-0.5894,-0.5789,-0.5788,-0.5786,-0.5791,-0.5789,-0.5788,0,0,0,0,0,-0.6176,-0.6151,-0.6146,-0.6135,-0.6076,-0.6035,-0.6027,-0.6006,-0.601,-0.5996,-0.5972,-0.5965,-0.5884,-0.5897,-0.5886,-0.5869,-0.579,-0.5788,-0.5786,-0.5792,-0.579,-0.5788,0,0,0,0,0,0,-0.619,-0.6145,-0.6139,-0.61,-0.6071,-0.6032,-0.6013,-0.6004,-0.5974,-0.5974,-0.5949,-0.594,-0.5901,-0.5881,-0.5897,-0.5831,-0.5837,-0.5833,-0.5845,-0.5842,-0.5841,-0.5845,-0.5891,0,0,0,0,0,-0.6189,-0.616,-0.6122,-0.6092,-0.6077,-0.6048,-0.6029,-0.6015,-0.5984,-0.5972,-0.5945,-0.5915,-0.5882,-0.5861,-0.583,-0.5789,-0.5778,-0.5772,-0.577,-0.5769,-0.5765,-0.5739,-0.5735,-0.5779,-0.5779,-0.5779,0,0,-0.6186,-0.6158,-0.6141,-0.6094,-0.607,-0.6039,-0.6038,-0.6006,-0.5983,-0.5967,-0.5927,-0.5906,-0.587,-0.5829,-0.581,-0.5811,-0.575,-0.5766,-0.5765,-0.5762,-0.5736,-0.5732,-0.5729,-0.5777,-0.5777,-0.5778,0,0,-0.6164,-0.6141,-0.6111,-0.6087,-0.605,-0.603,-0.6023,-0.5984,-0.597,-0.5929,-0.5916,-0.5888,-0.5833,-0.5807,-0.5787,-0.5753,-0.5744,-0.5743,-0.5733,-0.5708,-0.5705,-0.5701,-0.5687,-0.5682,-0.574,-0.574,-0.574,0,-0.6164,-0.6118,-0.6097,-0.6065,-0.6044,-0.6028,-0.5997,-0.5974,-0.5929,-0.5914,-0.5917,-0.5846,-0.5821,-0.5772,-0.5764,-0.5749,-0.5738,-0.5747,-0.5707,-0.5703,-0.57,-0.5686,-0.5681,-0.574,-0.574,-0.574,-0.574,0,-0.6119,-0.6088,-0.6068,-0.6024,-0.6001,-0.597,-0.5942,-0.5921,-0.5908,-0.5888,-0.5845,-0.5815,-0.5775,-0.5763,-0.5751,-0.5711,-0.5713,-0.5712,-0.5717,-0.5696,-0.5682,-0.5677,-0.574,-0.574,-0.574,-0.574,0,0,-0.6105,-0.6048,-0.6041,-0.602,-0.5978,-0.5952,-0.5919,-0.5881,-0.5862,-0.5831,-0.5801,-0.5754,-0.5752,-0.5729,-0.5714,-0.5692,-0.5664,-0.5693,-0.5692,-0.5687,-0.5616,-0.5616,-0.561,-0.5658,-0.5657,-0.5657,-0.5618,0,-0.6076,-0.6017,-0.5996,-0.5947,-0.5916,-0.59,-0.5871,-0.5841,-0.582,-0.579,-0.5767,-0.5733,-0.5734,-0.572,-0.5698,-0.5672,-0.5649,-0.5675,-0.5629,-0.5628,-0.5637,-0.5603,-0.5603,-0.5568,-0.5613,-0.5612,-0.5611,0,-0.6035,-0.6003,-0.5951,-0.591,-0.5896,-0.587,-0.5832,-0.5804,-0.5769,-0.5755,-0.5728,-0.5714,-0.5677,-0.5685,-0.5633,-0.5651,-0.5631,-0.5616,-0.5614,-0.5607,-0.5617,-0.5594,-0.5557,-0.5551,-0.5603,-0.5603,-0.5604,0,-0.6027,-0.5971,-0.5932,-0.5914,-0.5866,-0.5848,-0.5827,-0.5793,-0.577,-0.5736,-0.572,-0.5683,-0.5662,-0.5633,-0.5608,-0.5617,-0.5557,-0.5564,-0.5543,-0.5544,-0.553,-0.5531,-0.5488,-0.5521,-0.5521,-0.5521,-0.5521,0,-0.5997,-0.5965,-0.5927,-0.5903,-0.5866,-0.5841,-0.5805,-0.5783,-0.5752,-0.5722,-0.5706,-0.5677,-0.5648,-0.5615,-0.5596,-0.5554,-0.5545,-0.5532,-0.5527,-0.5532,-0.5534,-0.5518,-0.5519,-0.5519,-0.552,-0.552,-0.552,0,-0.5982,-0.5955,-0.5911,-0.5868,-0.5857,-0.5831,-0.5794,-0.5769,-0.5747,-0.5709,-0.5699,-0.5664,-0.5625,-0.5598,-0.5548,-0.5535,-0.5489,-0.5485,-0.55,-0.5498,-0.5477,-0.5479,-0.5421,-0.5411,-0.5452,-0.5452,-0.5452,0,-0.5963,-0.5938,-0.5892,-0.5871,-0.585,-0.5816,-0.5792,-0.5766,-0.5742,-0.5698,-0.5678,-0.5638,-0.5604,-0.5541,-0.5511,-0.5472,-0.5466,-0.5448,-0.546,-0.5465,-0.5463,-0.5464,-0.546,-0.5446,-0.5446,-0.5446,-0.5445,0,-0.5933,-0.592,-0.5887,-0.5848,-0.582,-0.5788,-0.5756,-0.5739,-0.5707,-0.5681,-0.564,-0.5614,-0.5562,-0.5521,-0.5478,-0.5455,-0.5444,-0.5442,-0.5435,-0.5439,-0.5448,-0.5441,-0.5493,-0.5443,-0.5444,-0.5444,-0.5444,-0.5444,-0.5914,-0.589,-0.5853,-0.5815,-0.5788,-0.5758,-0.5732,-0.5706,-0.5672,-0.5627,-0.5614,-0.5571,-0.5534,-0.5475,-0.5452,-0.5417,-0.5418,-0.5408,-0.5405,-0.5403,-0.5401,-0.5455,-0.5409,-0.5409,-0.5409,-0.5409,-0.5409,0,-0.5881,-0.5856,-0.5821,-0.5776,-0.5746,-0.5739,-0.5702,-0.5677,-0.564,-0.5606,-0.5573,-0.5524,-0.5484,-0.545,-0.5408,-0.5387,-0.538,-0.5376,-0.5377,-0.5371,-0.5404,-0.5413,-0.5382,-0.5382,-0.5382,-0.5382,-0.5382,-0.5382,-0.586,-0.5817,-0.58,-0.5744,-0.5719,-0.5676,-0.5656,-0.5627,-0.56,-0.5547,-0.5513,-0.5491,-0.5456,-0.5411,-0.5373,-0.5364,-0.5348,-0.5345,-0.5335,-0.5366,-0.5369,-0.5372,-0.5381,-0.5343,-0.5343,-0.5304,-0.5304,-0.5304]}]]